Tracking 19176 objects as of 26-May-2018
HD Live streaming from Space Station
objects crossing your sky now

COSMOS 1617

Track COSMOS 1617 now!
10-day predictions
COSMOS 1617 is classified as:


NORAD ID: 15469
Int'l Code: 1985-003A
Perigee: 1,417.8 km
Apogee: 1,422.0 km
Inclination: 82.6 °
Period: 114.1 minutes
Semi major axis: 7790 km
RCS: 1.0954 m2 (large)
Launch date: January 15, 1985
Source: Commonwealth of Independent States (former USSR) (CIS)
Launch site: PLESETSK MISSILE AND SPACE COMPLEX (PKMTR)
aabbcc
Your satellite tracking list
Your tracking list is empty




NASA's NSSDC Master Catalog

Two Line Element Set (TLE):
1 15469U 85003A   18145.74572727  .00000033  00000-0  12560-3 0  9994
2 15469  82.6123 186.7818 0002738 105.4548  15.4175 12.62469676537125
Source of the keplerian elements: AFSPC